#timestamp,LO_Frequency,Hit,Temp,Hum 
1479808815.2,286046957.4,N,0.0,0.0
1479808835.1,286046957.4,N,0.0,0.0
1479808836.0,286046957.4,N,0.0,0.0
1479808855.8,286046957.6,N,0.0,0.0
1479808875.6,286046955.9,N,0.0,0.0
1479808895.5,286046954.6,N,0.0,0.0
1479808915.3,286046954.8,N,0.0,0.0
1479808935.2,286046954.0,N,0.0,0.0
1479808955.9,286046954.0,N,0.0,0.0
1479808975.7,286046953.3,N,0.0,0.0
1479808995.6,286046954.0,N,0.0,0.0
1479809015.4,286046954.0,N,0.0,0.0
1479809035.2,286046952.1,N,0.0,0.0
1479809055.1,286046952.3,N,0.0,0.0
1479809056.0,286046952.3,N,0.0,0.0
1479809075.8,286046952.4,N,0.0,0.0
1479809095.7,286046951.8,N,0.0,0.0
1479809115.5,286046952.5,N,0.0,0.0
1479809135.3,286046953.0,N,0.0,0.0
1479809155.2,286046950.3,N,0.0,0.0
1479809175.0,286046950.3,N,0.0,0.0
1479809175.9,286046950.3,N,0.0,0.0
1479809195.8,286046953.0,N,0.0,0.0
1479809215.6,286046952.6,N,0.0,0.0
1479809235.4,286046951.9,N,0.0,0.0
1479809255.3,286046954.4,N,0.0,0.0
1479809275.1,286046953.2,N,0.0,0.0
1479809295.8,286046950.2,N,0.0,0.0
1479809315.7,286046952.6,N,0.0,0.0
1479809335.5,286046951.9,N,0.0,0.0
1479809355.4,286046953.1,N,0.0,0.0
1479809375.2,286046950.4,N,0.0,0.0
1479809395.0,286046950.9,N,0.0,0.0
1479809395.9,286046950.9,N,0.0,0.0
1479809415.8,286046950.5,N,0.0,0.0
1479809435.6,286046952.8,N,0.0,0.0
1479809455.5,286046952.7,N,0.0,0.0
1479809475.3,286046950.2,N,0.0,0.0
1479809495.1,286046953.2,N,0.0,0.0
1479809515.9,286046953.2,N,0.0,0.0
1479809535.7,286046952.9,N,0.0,0.0
1479809555.6,286046952.6,N,0.0,0.0
1479809575.4,286046952.1,N,0.0,0.0
1479809595.2,286046953.1,N,0.0,0.0
1479809615.1,286046951.9,N,0.0,0.0
1479809616.0,286046951.9,N,0.0,0.0
1479809635.8,286046954.3,N,0.0,0.0
1479809655.6,286046956.1,N,0.0,0.0
1479809675.5,286046956.0,N,0.0,0.0
1479809695.3,286046956.4,N,0.0,0.0
1479809715.2,286046956.0,N,0.0,0.0
1479809735.9,286046955.3,N,0.0,0.0
1479809755.7,286046955.9,N,0.0,0.0
1479809775.6,286046955.9,N,0.0,0.0
1479809795.4,286046955.3,N,0.0,0.0
1479809815.2,286046957.5,N,0.0,0.0
1479809835.1,286046958.0,N,0.0,0.0
1479809836.0,286046958.0,N,0.0,0.0
1479809855.8,286046957.2,N,0.0,0.0
1479809875.7,286046956.8,N,0.0,0.0
1479809895.5,286046959.6,N,0.0,0.0
1479809915.3,286046956.6,N,0.0,0.0
1479809935.2,286046957.0,N,0.0,0.0
1479809955.0,286046956.8,N,0.0,0.0
1479809955.9,286046956.8,N,0.0,0.0
1479809975.8,286046959.5,N,0.0,0.0
1479809995.6,286046956.6,N,0.0,0.0
1479810015.4,286046957.0,N,0.0,0.0
1479810035.3,286046958.9,N,0.0,0.0
1479810055.1,286046960.6,N,0.0,0.0
1479810075.9,286046960.9,N,0.0,0.0
1479810095.7,286046960.9,N,0.0,0.0
1479810115.5,286046962.0,N,0.0,0.0
1479810135.4,286046964.2,N,0.0,0.0
1479810155.2,286046961.7,N,0.0,0.0
1479810175.0,286046961.7,N,0.0,0.0
1479810176.0,286046961.7,N,0.0,0.0
1479810195.8,286046964.4,N,0.0,0.0
1479810215.6,286046963.5,N,0.0,0.0
1479810235.5,286046964.0,N,0.0,0.0
1479810255.3,286046961.9,N,0.0,0.0
1479810275.1,286046962.3,N,0.0,0.0
1479810295.9,286046964.4,N,0.0,0.0
1479810315.7,286046961.8,N,0.0,0.0
1479810335.6,286046961.4,N,0.0,0.0
1479810355.4,286046961.8,N,0.0,0.0
1479810375.2,286046961.3,N,0.0,0.0
1479810395.1,286046961.5,N,0.0,0.0
1479810396.0,286046961.5,N,0.0,0.0
1479810415.8,286046961.6,N,0.0,0.0
1479810435.7,286046961.3,N,0.0,0.0
1479810455.5,286046963.8,N,0.0,0.0
1479810475.3,286046961.4,N,0.0,0.0
1479810495.2,286046964.3,N,0.0,0.0
1479810515.9,286046964.0,N,0.0,0.0
1479810535.7,286046962.9,N,0.0,0.0
1479810555.6,286046963.1,N,0.0,0.0
1479810575.4,286046965.9,N,0.0,0.0
1479810595.3,286046965.9,N,0.0,0.0
1479810615.1,286046964.7,N,0.0,0.0
1479810616.0,286046964.7,N,0.0,0.0
1479810635.8,286046965.3,N,0.0,0.0
1479810655.7,286046964.8,N,0.0,0.0
1479810675.5,286046964.9,N,0.0,0.0
1479810695.3,286046966.9,N,0.0,0.0
1479810715.2,286046967.4,N,0.0,0.0
1479810735.0,286046966.4,N,0.0,0.0
1479810735.9,286046966.4,N,0.0,0.0
1479810755.8,286046966.5,N,0.0,0.0
1479810775.6,286046968.8,N,0.0,0.0
1479810795.4,286046966.3,N,0.0,0.0
1479810815.3,286046969.1,N,0.0,0.0
1479810835.1,286046968.6,N,0.0,0.0
1479810855.9,286046970.8,N,0.0,0.0
1479810875.7,286046970.7,N,0.0,0.0
1479810895.5,286046968.5,N,0.0,0.0
1479810915.4,286046968.2,N,0.0,0.0
1479810935.2,286046970.0,N,0.0,0.0
1479810955.1,286046967.7,N,0.0,0.0
1479810956.0,286046967.7,N,0.0,0.0
1479810975.8,286046970.7,N,0.0,0.0
1479810995.6,286046970.7,N,0.0,0.0
1479811015.5,286046969.9,N,0.0,0.0
1479811035.3,286046969.9,N,0.0,0.0
1479811055.1,286046969.3,N,0.0,0.0
1479811075.9,286046972.4,N,0.0,0.0
1479811095.7,286046971.3,N,0.0,0.0
1479811115.6,286046971.4,N,0.0,0.0
1479811135.4,286046971.0,N,0.0,0.0
1479811155.2,286046973.8,N,0.0,0.0
1479811175.1,286046972.7,N,0.0,0.0
1479811176.0,286046972.7,N,0.0,0.0
1479811195.8,286046970.9,N,0.0,0.0
1479811215.7,286046971.0,N,0.0,0.0
1479811235.5,286046971.0,N,0.0,0.0
1479811255.3,286046973.8,N,0.0,0.0
1479811275.2,286046973.9,N,0.0,0.0
1479811295.0,286046973.3,N,0.0,0.0
1479811295.9,286046973.3,N,0.0,0.0
1479811315.8,286046973.0,N,0.0,0.0
1479811335.6,286046975.6,N,0.0,0.0
1479811355.4,286046975.1,N,0.0,0.0
1479811375.3,286046975.3,N,0.0,0.0
1479811395.1,286046974.4,N,0.0,0.0
1479811415.8,286046974.6,N,0.0,0.0
1479811435.7,286046974.8,N,0.0,0.0
1479811455.5,286046974.5,N,0.0,0.0
1479811475.4,286046974.2,N,0.0,0.0
1479811495.2,286046977.0,N,0.0,0.0
1479811515.0,286046974.1,N,0.0,0.0
1479811515.9,286046974.1,N,0.0,0.0
1479811535.8,286046976.5,N,0.0,0.0
1479811555.6,286046976.0,N,0.0,0.0
1479811575.5,286046976.5,N,0.0,0.0
1479811595.3,286046976.9,N,0.0,0.0
1479811615.1,286046976.2,N,0.0,0.0
1479811635.9,286046978.8,N,0.0,0.0
1479811655.7,286046978.0,N,0.0,0.0
1479811675.5,286046976.1,N,0.0,0.0
1479811695.4,286046976.3,N,0.0,0.0
1479811715.2,286046976.4,N,0.0,0.0
1479811735.1,286046975.7,N,0.0,0.0
1479811736.0,286046975.7,N,0.0,0.0
1479811755.8,286046975.9,N,0.0,0.0
1479811775.6,286046976.2,N,0.0,0.0
1479811795.5,286046975.9,N,0.0,0.0
1479811815.3,286046978.6,N,0.0,0.0
1479811835.2,286046976.4,N,0.0,0.0
1479811855.9,286046976.0,N,0.0,0.0
1479811875.7,286046975.9,N,0.0,0.0
1479811895.6,286046975.9,N,0.0,0.0
1479811915.4,286046976.6,N,0.0,0.0
1479811935.2,286046976.4,N,0.0,0.0
1479811955.1,286046976.0,N,0.0,0.0
1479811956.0,286046976.0,N,0.0,0.0
1479811975.8,286046978.8,N,0.0,0.0
1479811995.7,286046978.8,N,0.0,0.0
1479812015.5,286046978.4,N,0.0,0.0
1479812035.3,286046975.7,N,0.0,0.0
1479812055.2,286046977.9,N,0.0,0.0
1479812075.0,286046977.3,N,0.0,0.0
1479812075.9,286046977.3,N,0.0,0.0
1479812095.8,286046977.4,N,0.0,0.0
1479812115.6,286046979.8,N,0.0,0.0
1479812135.4,286046978.9,N,0.0,0.0
1479812155.3,286046977.3,N,0.0,0.0
1479812175.1,286046977.5,N,0.0,0.0
1479812195.9,286046977.3,N,0.0,0.0
1479812215.7,286046979.4,N,0.0,0.0
1479812235.5,286046979.1,N,0.0,0.0
1479812255.4,286046979.3,N,0.0,0.0
1479812275.2,286046981.7,N,0.0,0.0
1479812295.0,286046981.2,N,0.0,0.0
1479812295.9,286046981.2,N,0.0,0.0
1479812315.8,286046979.5,N,0.0,0.0
1479812335.6,286046982.0,N,0.0,0.0
1479812355.5,286046981.7,N,0.0,0.0
1479812375.3,286046983.5,N,0.0,0.0
1479812395.1,286046980.5,N,0.0,0.0
